Barrow: Past 24 Hour Conditions

 

Puvirnituq Airport

02:00 PM EDT 25 October 2014
This table is a summary of hourly weather conditions for the past 24 hours.
Date / Time
(EDT)
Wind(knots) Conditions Visibility(km) Pressure(kPa) Air tempC) Relative humidity(%) Dew pointC) Wind Chill
25 October 2014
14:00 E 21 gust 27 Cloudy 24 100.1 1 87 -1 *
13:00 E 23 gust 30 Cloudy 19 100.1 0 86 -2 -8
12:00 ESE 27 gust 34 Cloudy 19 100.2 -1 86 -3 -10
11:00 ESE 26 gust 33 Cloudy 24 100.2 -1 84 -3 -10
10:00 E 22 gust 28 Cloudy 24 100.2 -1 88 -3 -9
9:00 E 23 gust 29 Cloudy 16 100.3 -1 90 -3 -10
8:00 ESE 23 gust 31 Cloudy 19 100.3 -1 90 -3 -9
7:00 E 23 gust 35 Light Snow 16 100.3 -2 92 -3 -10
6:00 ESE 29 gust 37 Cloudy 16 100.4 -1 89 -3 -10
5:00 E 26 gust 38 Light Snow 16 100.5 -2 91 -3 -10
4:00 E 28 gust 38 Cloudy 16 100.5 -2 92 -3 -11
3:00 ESE 29 gust 38 Cloudy 15 100.6 -1 90 -3 -10
2:00 ESE 28 gust 35 Cloudy 16 100.7 -2 91 -3 -10
1:00 ESE 29 gust 41 Cloudy 16 100.7 -2 93 -3 -11
0:00 ESE 30 gust 38 Cloudy 13 100.7 -2 96 -2 -11
24 October 2014
23:00 E 25 gust 35 Cloudy 11 100.8 -2 93 -3 -10
22:00 E 26 gust 37 Blowing Snow 10 100.9 -2 91 -3 -10
21:00 E 28 gust 37 Blowing Snow 8 101.0 -2 93 -3 -11
20:00 E 27 gust 34 Light Snow 3 101.1 -2 94 -3 -11
19:00 E 30 gust 35 Light Snow 2 101.1 -2 92 -3 -11
18:00 E 26 gust 33 Light Snow 3 101.2 -3 94 -3 -11
17:00 ENE 25 gust 32 Light Snow 2 101.3 -3 96 -3 -11
16:00 E 32 gust 39 Snow 0.8 101.3 -3 93 -4 -13
15:00 E 27 gust 37 Light Snow 2 101.4 -3 91 -4 -12
14:00 E 25 gust 31 Light Snow 2 101.6 -3 91 -5 -12
 
Map of Arctic - Eastern Arctic marine weather areas Baker Lake Airport Chesterfield Inlet Airport Coral Harbour Airport Gjoa Haven Airport Kugaaruk Airport Rankin Inlet Airport Shepherd Bay Airport Whale Cove Airport Arctic Bay Brevoort Island Qikiqtarjuaq Airport Cape Dorset Airport Cape Dyer Cape Hooper Clyde Airport Grise Fiord Airport Hall Beach Airport Igloolik Airport Iqaluit Airport Longstaff Bluff Pangnirtung Airport Pond Inlet Airport Repulse Bay Airport Resolute Airport Resolution Island Rowley Island Airport Taloyoak Airport Wager Bay Akulivik Airport Ivujivik Airport Puvirnituq Airport Kangiqsujuaq Airport Kangirsuk Airport Quaqtaq Airport Tasiujaq Airport Cape Kakkiviak Cape Kiglapait Nain Airport Saglek Cape Mercy Kimmirut Airport Aupaluk Airport Salluit Airport Kangiqsualujjuaq Airport Fort Ross
Legend: buoyBuoy land stationLand Station